Météo par heure à Juszki

Ce jour, 16 Juin, Mercredi

Heure Température Précipitation Vent Pression Humidité
00:00 +9°C° 0 mm 2 m/s 751 mmHg 87%
01:00 +9°C° 0 mm 2 m/s 751 mmHg 89%
02:00 +10°C° 0 mm 1 m/s 751 mmHg 90%
03:00 +10°C° 0 mm 1 m/s 751 mmHg 90%
04:00 +10°C° 0 mm 1 m/s 751 mmHg 91%
05:00 +12°C° 0 mm 1 m/s 751 mmHg 81%
06:00 +14°C° 0 mm 1 m/s 752 mmHg 70%
07:00 +16°C° 0 mm 1 m/s 752 mmHg 59%
08:00 +19°C° 0 mm 1 m/s 752 mmHg 53%
09:00 +21°C° 0 mm 1 m/s 752 mmHg 48%
10:00 +22°C° 0 mm 1 m/s 752 mmHg 42%
11:00 +23°C° 0 mm 1 m/s 752 mmHg 40%
12:00 +24°C° 0 mm 1 m/s 751 mmHg 38%
13:00 +24°C° 0 mm 1 m/s 751 mmHg 36%
14:00 +24°C° 0 mm 2 m/s 751 mmHg 37%
15:00 +24°C° 0 mm 2 m/s 751 mmHg 39%
16:00 +24°C° 0 mm 3 m/s 751 mmHg 41%
17:00 +21°C° 0 mm 3 m/s 751 mmHg 49%
18:00 +20°C° 0 mm 3 m/s 751 mmHg 58%
19:00 +18°C° 0 mm 3 m/s 751 mmHg 66%
20:00 +17°C° 0 mm 3 m/s 751 mmHg 72%
21:00 +15°C° 0 mm 2 m/s 752 mmHg 78%
22:00 +13°C° 0 mm 2 m/s 752 mmHg 84%
23:00 +13°C° 0 mm 2 m/s 752 mmHg 86%

Demain, 17 Juin, Jeudi

Heure Température Précipitation Vent Pression Humidité
00:00 +13°C° 0 mm 2 m/s 752 mmHg 88%
01:00 +12°C° 0 mm 2 m/s 752 mmHg 90%
02:00 +12°C° 0 mm 2 m/s 752 mmHg 90%
03:00 +12°C° 0 mm 2 m/s 752 mmHg 90%
04:00 +12°C° 0 mm 2 m/s 752 mmHg 90%
05:00 +14°C° 0 mm 2 m/s 752 mmHg 80%
06:00 +17°C° 0 mm 3 m/s 752 mmHg 70%
07:00 +19°C° 0 mm 3 m/s 752 mmHg 59%
08:00 +21°C° 0 mm 3 m/s 752 mmHg 56%
09:00 +24°C° 0 mm 3 m/s 752 mmHg 53%
10:00 +25°C° 0 mm 4 m/s 752 mmHg 50%
11:00 +26°C° 0 mm 4 m/s 752 mmHg 48%
12:00 +27°C° 0 mm 4 m/s 752 mmHg 46%
13:00 +28°C° 0 mm 5 m/s 752 mmHg 44%
14:00 +28°C° 0 mm 4 m/s 752 mmHg 44%
15:00 +28°C° 0 mm 4 m/s 751 mmHg 45%
16:00 +28°C° 0 mm 4 m/s 751 mmHg 46%
17:00 +27°C° 0 mm 4 m/s 751 mmHg 52%
18:00 +26°C° 0 mm 4 m/s 751 mmHg 58%
19:00 +25°C° 0 mm 3 m/s 751 mmHg 65%
20:00 +22°C° 0 mm 3 m/s 751 mmHg 68%
21:00 +20°C° 0 mm 3 m/s 752 mmHg 72%
22:00 +19°C° 0 mm 3 m/s 752 mmHg 75%
23:00 +18°C° 0 mm 3 m/s 752 mmHg 76%

Après-demain, 18 Juin, Vendredi

Heure Température Précipitation Vent Pression Humidité
00:00 +17°C° 0 mm 3 m/s 752 mmHg 77%
01:00 +16°C° 0 mm 3 m/s 751 mmHg 79%
02:00 +16°C° 0 mm 3 m/s 751 mmHg 80%
03:00 +16°C° 0 mm 3 m/s 751 mmHg 81%
04:00 +16°C° 0 mm 3 m/s 751 mmHg 82%
05:00 +18°C° 0 mm 3 m/s 751 mmHg 75%
06:00 +20°C° 0 mm 3 m/s 751 mmHg 68%
07:00 +22°C° 0 mm 4 m/s 752 mmHg 62%
08:00 +23°C° 0 mm 4 m/s 751 mmHg 55%
09:00 +26°C° 0 mm 4 m/s 751 mmHg 49%
10:00 +28°C° 0 mm 5 m/s 751 mmHg 42%
11:00 +29°C° 0 mm 5 m/s 751 mmHg 41%
12:00 +29°C° 0 mm 5 m/s 750 mmHg 39%
13:00 +30°C° 0 mm 5 m/s 750 mmHg 38%
14:00 +30°C° 0 mm 5 m/s 750 mmHg 40%
15:00 +30°C° 0 mm 5 m/s 750 mmHg 41%
16:00 +30°C° 0 mm 5 m/s 750 mmHg 43%
17:00 +29°C° 0 mm 4 m/s 750 mmHg 49%
18:00 +28°C° 0 mm 3 m/s 750 mmHg 55%
19:00 +27°C° 0 mm 3 m/s 749 mmHg 61%
20:00 +25°C° 0 mm 3 m/s 750 mmHg 68%
21:00 +24°C° 0 mm 3 m/s 750 mmHg 74%
22:00 +21°C° 0 mm 3 m/s 750 mmHg 81%
23:00 +21°C° 0 mm 3 m/s 750 mmHg 82%

19 Juin, Samedi

Heure Température Précipitation Vent Pression Humidité
00:00 +21°C° 0 mm 3 m/s 750 mmHg 83%
01:00 +20°C° 0 mm 3 m/s 750 mmHg 84%
02:00 +20°C° 0 mm 3 m/s 750 mmHg 87%
03:00 +19°C° 0 mm 3 m/s 750 mmHg 89%
04:00 +19°C° 0 mm 3 m/s 750 mmHg 92%
05:00 +20°C° 0 mm 3 m/s 750 mmHg 84%
06:00 +22°C° 0 mm 4 m/s 750 mmHg 75%
07:00 +25°C° 0 mm 4 m/s 750 mmHg 67%
08:00 +27°C° 0 mm 5 m/s 749 mmHg 61%
09:00 +28°C° 0 mm 5 m/s 749 mmHg 55%
10:00 +30°C° 0 mm 5 m/s 749 mmHg 49%
11:00 +30°C° 0 mm 5 m/s 749 mmHg 46%
12:00 +32°C° 0 mm 5 m/s 749 mmHg 44%
13:00 +33°C° 0 mm 5 m/s 748 mmHg 41%
14:00 +33°C° 0 mm 5 m/s 748 mmHg 42%
15:00 +33°C° 0 mm 4 m/s 748 mmHg 43%
16:00 +33°C° 0 mm 4 m/s 748 mmHg 43%
17:00 +32°C° 0 mm 4 m/s 748 mmHg 49%
18:00 +30°C° 0 mm 4 m/s 748 mmHg 54%
19:00 +28°C° 0 mm 3 m/s 747 mmHg 60%
20:00 +27°C° 0 mm 3 m/s 748 mmHg 64%
21:00 +26°C° 0 mm 3 m/s 748 mmHg 69%
22:00 +25°C° 0 mm 3 m/s 748 mmHg 73%
23:00 +24°C° 0.1 mm 3 m/s 748 mmHg 76%

20 Juin, Dimanche

Heure Température Précipitation Vent Pression Humidité
00:00 +24°C° 0.1 mm 2 m/s 748 mmHg 78%
01:00 +23°C° 0.1 mm 2 m/s 748 mmHg 81%
02:00 +23°C° 0 mm 2 m/s 748 mmHg 84%
03:00 +21°C° 0 mm 2 m/s 748 mmHg 87%
04:00 +21°C° 0 mm 1 m/s 748 mmHg 90%
05:00 +23°C° 0.1 mm 2 m/s 748 mmHg 85%
06:00 +24°C° 0.1 mm 2 m/s 748 mmHg 79%
07:00 +25°C° 0.1 mm 3 m/s 748 mmHg 74%
08:00 +27°C° 0 mm 3 m/s 748 mmHg 67%
09:00 +28°C° 0 mm 3 m/s 748 mmHg 61%
10:00 +29°C° 0 mm 4 m/s 748 mmHg 54%
11:00 +30°C° 0 mm 4 m/s 748 mmHg 51%
12:00 +32°C° 0 mm 4 m/s 747 mmHg 48%
13:00 +33°C° 0 mm 4 m/s 747 mmHg 45%
14:00 +32°C° 0 mm 4 m/s 747 mmHg 47%
15:00 +31°C° 0 mm 3 m/s 747 mmHg 50%
16:00 +30°C° 0 mm 3 m/s 747 mmHg 53%
17:00 +29°C° 0 mm 3 m/s 747 mmHg 56%
18:00 +28°C° 0 mm 3 m/s 747 mmHg 59%
19:00 +28°C° 0 mm 3 m/s 746 mmHg 62%
20:00 +26°C° 0 mm 3 m/s 747 mmHg 68%
21:00 +25°C° 0 mm 3 m/s 747 mmHg 73%
22:00 +23°C° 0 mm 2 m/s 747 mmHg 78%
23:00 +22°C° 0 mm 3 m/s 747 mmHg 80%

21 Juin, Lundi

Heure Température Précipitation Vent Pression Humidité
00:00 +21°C° 0 mm 3 m/s 746 mmHg 81%
01:00 +20°C° 0 mm 3 m/s 746 mmHg 83%
02:00 +20°C° 0 mm 3 m/s 746 mmHg 85%
03:00 +20°C° 0 mm 2 m/s 746 mmHg 86%
04:00 +19°C° 0 mm 2 m/s 746 mmHg 88%
05:00 +21°C° 0 mm 3 m/s 746 mmHg 80%
06:00 +23°C° 0 mm 4 m/s 746 mmHg 73%
07:00 +26°C° 0 mm 4 m/s 746 mmHg 65%
08:00 +27°C° 0 mm 5 m/s 746 mmHg 60%
09:00 +28°C° 0 mm 5 m/s 746 mmHg 55%
10:00 +30°C° 0 mm 6 m/s 746 mmHg 49%
11:00 +32°C° 0 mm 6 m/s 745 mmHg 46%
12:00 +32°C° 0 mm 6 m/s 745 mmHg 43%
13:00 +33°C° 0 mm 6 m/s 745 mmHg 41%
14:00 +33°C° 0 mm 5 m/s 745 mmHg 41%
15:00 +33°C° 0 mm 5 m/s 745 mmHg 41%
16:00 +33°C° 0 mm 5 m/s 745 mmHg 41%
17:00 +32°C° 0 mm 4 m/s 744 mmHg 46%
18:00 +30°C° 0 mm 4 m/s 744 mmHg 52%
19:00 +29°C° 0 mm 3 m/s 744 mmHg 57%
20:00 +27°C° 0.1 mm 3 m/s 745 mmHg 65%
21:00 +25°C° 0.1 mm 2 m/s 745 mmHg 72%
22:00 +23°C° 0.1 mm 2 m/s 745 mmHg 80%
23:00 +23°C° 0 mm 2 m/s 745 mmHg 81%
Voir plus

Nous avons besoin de votre consentement

Meteoprog et ses fournisseurs de services peuvent stocker et accéder à des données personnelles telles que des cookies, des identifiants d'appareils ou d'autres technologies similaires sur votre appareil et traiter ces données pour personnaliser le contenu et les publicités, ainsi que pour fournir des fonctionnalités de médias sociaux et analyser le trafic.

  • Stocker et/ou accéder à des informations sur votre appareil

    Des cookies, des identifiants d'appareils ou d'autres informations peuvent être stockés ou accessibles sur votre appareil aux fins indiquées ci-dessus.

  • Annonces et contenus personnalisés, mesure des annonces et des contenus, connaissance de l'audience et développement de produits

    Les annonces et le contenu peuvent être personnalisés en fonction d'un profil. D'autres données peuvent être ajoutées pour mieux personnaliser les annonces et le contenu. Les performances des publicités et du contenu peuvent être mesurées. Il est possible d'obtenir des informations sur le public qui a vu les publicités et le contenu. Ces données peuvent être utilisées pour développer ou améliorer l'expérience de l'utilisateur, les systèmes et les logiciels.

En cliquant sur "J'accepte", vous autorisez l'utilisation de cookies, des identifiants d'appareils, des balises web ou d'autres technologies similaires. Vos paramètres peuvent être modifiés dans le navigateur de votre appareil.

Dans certains cas, des intérêts légitimes peuvent être invoqués plutôt qu'un consentement. Vous pouvez en savoir plus à ce sujet dans notre Politique de confidentialité et de cookies.